This is the latest recevied weather packets stored in our database for station/object KG5APU. If no packets are shown the sender has not sent any weather packets the latest 10 day(s).
| Time | Temp. | Humidity | Pressure | Rain* | Wind** | Luminosity | Snow |
|---|---|---|---|---|---|---|---|
| 1777250956 | 27.22° C | 75% | 1006 hPa | 0 mm | - | 13 W/m² | - |
| 1777250355 | 27.78° C | 74% | 1006 hPa | 0 mm | - | 22 W/m² | - |
| 1777249753 | 27.78° C | 73% | 1005.9 hPa | 0 mm | - | 34 W/m² | - |
| 1777249152 | 28.33° C | 73% | 1005.6 hPa | 0 mm | - | 48 W/m² | - |
| 1777248550 | 28.33° C | 73% | 1006 hPa | 0 mm | - | 65 W/m² | - |
| 1777247948 | 28.33° C | 72% | 1005.8 hPa | 0 mm | - | 78 W/m² | - |
| 1777247347 | 28.89° C | 70% | 1005.9 hPa | 0 mm | - | 89 W/m² | - |
| 1777246747 | 28.89° C | 70% | 1005.9 hPa | 0 mm | - | 118 W/m² | - |
| 1777246146 | 28.89° C | 70% | 1006 hPa | 0 mm | - | 141 W/m² | - |
| 1777245541 | 29.44° C | 70% | 1006.2 hPa | 0 mm | - | 174 W/m² | - |
| 1777244938 | 29.44° C | 71% | 1006 hPa | 0 mm | - | 190 W/m² | - |
| 1777244336 | 28.89° C | 71% | 1006 hPa | 0 mm | - | 208 W/m² | - |
| 1777243731 | 29.44° C | 71% | 1006.1 hPa | 0 mm | - | 119 W/m² | - |
| 1777243129 | 29.44° C | 71% | 1006.3 hPa | 0 mm | - | 125 W/m² | - |
| 1777242529 | 28.89° C | 72% | 1006.4 hPa | 0 mm | - | 127 W/m² | - |
| 1777241929 | 28.89° C | 71% | 1006.3 hPa | 0 mm | - | 155 W/m² | - |
| 1777241329 | 29.44° C | 70% | 1006.8 hPa | 0 mm | - | 389 W/m² | - |
| 1777240724 | 29.44° C | 70% | 1006.4 hPa | 0 mm | - | 429 W/m² | - |
| 1777240118 | 28.89° C | 72% | 1006.8 hPa | 0 mm | - | 521 W/m² | - |
| 1777239518 | 28.89° C | 73% | 1006.8 hPa | 0 mm | - | 319 W/m² | - |
| 1777238913 | 28.89° C | 73% | 1007.1 hPa | 0 mm | - | 513 W/m² | - |
| 1777238312 | 28.33° C | 74% | 1007.2 hPa | 0 mm | - | 243 W/m² | - |
| 1777237712 | 28.89° C | 72% | 1007.1 hPa | 0 mm | - | 275 W/m² | - |
| 1777237112 | 28.89° C | 73% | 1007.4 hPa | 0 mm | - | 641 W/m² | - |
| 1777236509 | 27.78° C | 75% | 1007.5 hPa | 0 mm | - | 630 W/m² | - |
* Rain latest hour (hover to see other rain measurements)
** Current wind speed in m/s (hover to see current wind gust speed)